GW0435 Weather Reports


Display with metric or nautical units.
time (UTC)temp
F
wind
direction
speed
MPH
gust
MPH
rain 1hr
in
rain 24hr
in
rain mn
in
humidity
%
barometer
mb
20260509151612 67 329 2.0 5.0 0.00 0.00 0.00 20 1003.0
20260509150055 65 329 1.0 5.0 0.00 0.00 0.00 21 1002.9
20260509144550 64 329 0.0 5.0 0.00 0.00 0.00 21 1003.2
20260509143054 63 328 3.0 7.0 0.00 0.00 0.00 23 1003.3
20260509141545 63 328 0.0 3.0 0.00 0.00 0.00 22 1003.3
20260509140040 62 328 1.0 3.0 0.00 0.00 0.00 22 1003.2
20260509134534 60 328 2.0 4.0 0.00 0.00 0.00 24 1003.2
20260509133029 58 328 3.0 5.0 0.00 0.00 0.00 27 1003.0
20260509131528 56 328 2.0 4.0 0.00 0.00 0.00 29 1002.9
20260509130024 54 328 0.0 3.0 0.00 0.00 0.00 30 1003.1
20260509124517 53 328 2.0 4.0 0.00 0.00 0.00 30 1003.0
20260509123015 52 328 2.0 4.0 0.00 0.00 0.00 31 1002.8
20260509121511 52 328 2.0 4.0 0.00 0.00 0.00 31 1002.6
20260509120019 52 325 2.0 4.0 0.00 0.00 0.00 32 1002.5
20260509114507 52 325 2.0 5.0 0.00 0.00 0.00 32 1002.3
20260509113006 52 325 1.0 4.0 0.00 0.00 0.00 31 1002.2
20260509111507 54 325 3.0 4.0 0.00 0.00 0.00 29 1002.1
20260509110005 54 325 3.0 4.0 0.00 0.00 0.00 30 1002.1
20260509104504 53 325 2.0 4.0 0.00 0.00 0.00 30 1002.0
20260509103004 53 325 3.0 5.0 0.00 0.00 0.00 31 1002.0
20260509101512 53 325 3.0 5.0 0.00 0.00 0.00 31 1002.0
20260509100006 53 325 3.0 6.0 0.00 0.00 0.00 31 1002.0
20260509094558 54 325 2.0 5.0 0.00 0.00 0.00 29 1002.0
20260509093054 56 325 2.0 4.0 0.00 0.00 0.00 27 1001.9
20260509091553 59 325 2.0 3.0 0.00 0.00 0.00 24 1002.0
20260509090056 59 325 1.0 2.0 0.00 0.00 0.00 25 1002.0
20260509084553 58 325 1.0 2.0 0.00 0.00 0.00 26 1002.0
20260509083048 59 325 2.0 3.0 0.00 0.00 0.00 25 1002.1
20260509081553 58 325 1.0 2.0 0.00 0.00 0.00 26 1002.2
20260509080046 57 325 1.0 3.0 0.00 0.00 0.00 26 1002.2
20260509074547 57 325 1.0 3.0 0.00 0.00 0.00 26 1002.3
20260509073049 57 325 2.0 4.0 0.00 0.00 0.00 26 1002.3
20260509071550 57 325 1.0 3.0 0.00 0.00 0.00 26 1002.4
20260509070049 58 325 0.0 4.0 0.00 0.00 0.00 26 1002.4
20260509064539 58 325 1.0 5.0 0.00 0.00 0.00 25 1002.5
20260509063057 58 325 1.0 3.0 0.00 0.00 0.00 25 1002.6
20260509061601 58 325 1.0 3.0 0.00 0.00 0.00 24 1002.7
20260509060051 58 325 1.0 2.0 0.00 0.00 0.00 24 1002.6
20260509054534 58 325 1.0 4.0 0.00 0.00 0.00 24 1002.7
20260509053034 59 325 0.0 2.0 0.00 0.00 0.00 23 1002.9
20260509051534 59 325 1.0 3.0 0.00 0.00 0.00 23 1003.1
20260509050034 60 325 0.0 3.0 0.00 0.00 0.00 22 1003.2
20260509044533 60 325 0.0 4.0 0.00 0.00 0.00 22 1003.3
20260509043032 60 325 2.0 7.0 0.00 0.00 0.00 21 1003.3
20260509041532 63 325 0.0 3.0 0.00 0.00 0.00 20 1003.2
20260509040031 63 325 1.0 5.0 0.00 0.00 0.00 19 1003.2
20260509034530 63 325 1.0 4.0 0.00 0.00 0.00 19 1003.1
20260509033030 63 325 2.0 5.0 0.00 0.00 0.00 18 1002.9
20260509031534 64 325 2.0 5.0 0.00 0.00 0.00 18 1002.7
20260509030029 65 325 2.0 6.0 0.00 0.00 0.00 17 1002.5
20260509024529 66 325 3.0 6.0 0.00 0.00 0.00 16 1002.3
20260509023028 67 325 3.0 8.0 0.00 0.00 0.00 16 1002.0
20260509021529 68 325 3.0 8.0 0.00 0.00 0.00 15 1001.7
20260509020045 70 325 3.0 9.0 0.00 0.00 0.00 14 1001.3
20260509014541 72 325 3.0 11.0 0.00 0.00 0.00 13 1001.1
20260509013036 73 325 4.0 16.0 0.00 0.00 0.00 13 1000.8
20260509011527 75 336 4.0 8.0 0.00 0.00 0.00 12 1000.8
20260509010026 75 336 4.0 9.0 0.00 0.00 0.00 13 1000.8
20260509004526 74 336 4.0 10.0 0.00 0.00 0.00 14 1000.7
20260509003031 76 336 6.0 11.0 0.00 0.00 0.00 13 1000.8
20260509001522 75 342 5.0 11.0 0.00 0.00 0.00 13 1001.0
20260509000021 74 344 1.0 4.0 0.00 0.00 0.00 14 1001.2
20260508234520 74 344 2.0 4.0 0.00 0.00 0.00 14 1001.3
20260508233020 75 344 5.0 9.0 0.00 0.00 0.00 14 1001.2
20260508231519 76 344 2.0 4.0 0.00 0.00 0.00 14 1001.3
20260508230020 75 344 4.0 9.0 0.00 0.00 0.00 14 1001.5
20260508224517 78 344 3.0 10.0 0.00 0.00 0.00 13 1001.5
20260508223021 77 344 2.0 9.0 0.00 0.00 0.00 13 1001.5
20260508221515 77 344 5.0 12.0 0.00 0.00 0.00 13 1001.6
20260508220013 76 344 0.0 4.0 0.00 0.00 0.00 13 1001.8
20260508214516 76 344 3.0 8.0 0.00 0.00 0.00 13 1002.0
20260508213010 75 344 2.0 11.0 0.00 0.00 0.00 14 1002.3
20260508211509 78 350 3.0 6.0 0.00 0.00 0.00 13 1002.5
20260508210006 74 350 4.0 7.0 0.00 0.00 0.00 14 1002.7
20260508204502 74 350 3.0 10.0 0.00 0.00 0.00 14 1003.2
20260508203107 73 350 3.0 12.0 0.00 0.00 0.00 14 1003.4
20260508201604 72 350 3.0 9.0 0.00 0.00 0.00 15 1003.6
20260508200056 73 351 6.0 12.0 0.00 0.00 0.00 15 1003.9
20260508194553 72 355 2.0 14.0 0.00 0.00 0.00 15 1004.1
20260508193054 71 355 6.0 17.0 0.00 0.00 0.00 16 1004.2
20260508191550 71 351 7.0 16.0 0.00 0.00 0.00 16 1004.4
20260508190048 69 5 4.0 13.0 0.00 0.00 0.00 16 1004.4
20260508184549 70 5 5.0 16.0 0.00 0.00 0.00 16 1004.7
20260508183044 70 9 9.0 14.0 0.00 0.00 0.00 16 1005.0
20260508181554 69 355 6.0 13.0 0.00 0.00 0.00 17 1005.3
20260508180037 69 355 5.0 15.0 0.00 0.00 0.00 17 1005.5
20260508174539 67 355 6.0 14.0 0.00 0.00 0.00 18 1005.7
20260508173037 67 351 10.0 15.0 0.00 0.00 0.00 18 1006.1
20260508171527 66 360 5.0 17.0 0.00 0.00 0.00 21 1006.1
20260508170022 66 355 8.0 15.0 0.00 0.00 0.00 21 1006.3
20260508164517 66 286 6.0 14.0 0.00 0.00 0.00 20 1006.6
20260508163017 65 248 6.0 12.0 0.00 0.00 0.00 19 1006.8
20260508161510 64 248 5.0 10.0 0.00 0.00 0.00 20 1006.9
20260508160005 63 248 5.0 9.0 0.00 0.00 0.00 20 1007.1
20260508154605 61 248 6.0 11.0 0.00 0.00 0.00 20 1007.2
20260508153057 60 248 3.0 8.0 0.00 0.00 0.00 21 1007.4